Estación de Petorca
Ultimos registro cada 15 minutos 91
| N° | Estación | Fecha / Hora | Temperatura | Humedad | Lluvia | Velocidad | Dirección | Radiación | Presion |
| 91 | Petorca | 07-05-2026 22:30 | 9 | 92,1 | 0 | 0 | 8 | 0,6 | 990,2 |
| 90 | Petorca | 07-05-2026 22:15 | 9,2 | 91,2 | 0 | 0 | 8 | 0,6 | 989,7 |
| 89 | Petorca | 07-05-2026 22:00 | 9,8 | 90,6 | 0 | 0 | 25 | 0,6 | 989,8 |
| 88 | Petorca | 07-05-2026 21:45 | 10,2 | 89,9 | 0 | 0 | 22 | 0,6 | 990 |
| 87 | Petorca | 07-05-2026 21:30 | 10,3 | 89,3 | 0 | 0 | 97 | 0,6 | 990,4 |
| 86 | Petorca | 07-05-2026 21:15 | 10,6 | 88 | 0 | 0 | 229 | 0,6 | 990,4 |
| 85 | Petorca | 07-05-2026 21:00 | 11,1 | 87,4 | 0 | 0,5 | 41 | 0,6 | 990 |
| 84 | Petorca | 07-05-2026 20:45 | 10,3 | 89,8 | 0 | 0 | 13 | 0,6 | 990 |
| 83 | Petorca | 07-05-2026 20:30 | 10,5 | 89,2 | 0 | 0 | 15 | 0,6 | 990,4 |
| 82 | Petorca | 07-05-2026 20:15 | 10,5 | 88,4 | 0 | 0 | 15 | 0,6 | 990,4 |
| 81 | Petorca | 07-05-2026 20:00 | 11,2 | 86,4 | 0 | 0 | 24 | 0,6 | 990,5 |
| 80 | Petorca | 07-05-2026 19:45 | 11,9 | 84 | 0 | 0 | 21 | 0,6 | 990,4 |
| 79 | Petorca | 07-05-2026 19:30 | 12,5 | 82,7 | 0 | 0 | 31 | 0,6 | 990,3 |
| 78 | Petorca | 07-05-2026 19:15 | 12,7 | 82 | 0 | 0 | 13 | 0,6 | 990,2 |
| 77 | Petorca | 07-05-2026 19:00 | 13 | 82,2 | 0 | 0 | 7 | 0,6 | 990,4 |
| 76 | Petorca | 07-05-2026 18:45 | 13 | 80,7 | 0 | 0 | 58 | 0,6 | 990,3 |
| 75 | Petorca | 07-05-2026 18:30 | 14,3 | 76,6 | 0 | 0 | 191 | 0,6 | 990,4 |
| 74 | Petorca | 07-05-2026 18:15 | 14,9 | 74,4 | 0 | 0 | 205 | 0,6 | 990 |
| 73 | Petorca | 07-05-2026 18:00 | 15,5 | 72,3 | 0 | 0 | 234 | 3,1 | 990 |
| 72 | Petorca | 07-05-2026 17:45 | 15,7 | 71 | 0 | 0 | 253 | 9,4 | 989,9 |
| 71 | Petorca | 07-05-2026 17:30 | 16,1 | 70 | 0 | 0,5 | 248 | 15,6 | 989,8 |
| 70 | Petorca | 07-05-2026 17:15 | 16,4 | 69 | 0 | 0 | 253 | 20,6 | 989,9 |
| 69 | Petorca | 07-05-2026 17:00 | 16,9 | 67,5 | 0 | 0,5 | 240 | 24,4 | 989,7 |
| 68 | Petorca | 07-05-2026 16:45 | 17,5 | 64,9 | 0 | 1 | 237 | 28,1 | 989,6 |
| 67 | Petorca | 07-05-2026 16:30 | 19,1 | 60,1 | 0 | 1,5 | 239 | 251,9 | 989,4 |
| 66 | Petorca | 07-05-2026 16:15 | 19,3 | 59,8 | 0 | 2 | 225 | 305,6 | 989,2 |
| 65 | Petorca | 07-05-2026 16:00 | 20 | 57,2 | 0 | 1,5 | 237 | 359,4 | 989 |
| 64 | Petorca | 07-05-2026 15:45 | 20,7 | 55,1 | 0 | 1,5 | 237 | 403,1 | 989 |
| 63 | Petorca | 07-05-2026 15:30 | 20 | 56 | 0 | 2 | 225 | 445,6 | 988,9 |
| 62 | Petorca | 07-05-2026 15:15 | 20,5 | 54,7 | 0 | 2 | 225 | 483,1 | 988,8 |
| 61 | Petorca | 07-05-2026 15:00 | 20,2 | 54,9 | 0 | 2 | 230 | 519,4 | 989 |
| 60 | Petorca | 07-05-2026 14:45 | 20,4 | 53,5 | 0 | 1 | 229 | 553,1 | 988,8 |
| 59 | Petorca | 07-05-2026 14:30 | 21,1 | 53,9 | 0 | 1 | 237 | 581,9 | 989,1 |
| 58 | Petorca | 07-05-2026 14:15 | 19,7 | 56,3 | 0 | 2 | 225 | 603,1 | 989,2 |
| 57 | Petorca | 07-05-2026 14:00 | 19,5 | 59,2 | 0 | 2 | 226 | 624,4 | 989,5 |
| 56 | Petorca | 07-05-2026 13:45 | 19,3 | 59,9 | 0 | 2,5 | 223 | 644,4 | 990 |
| 55 | Petorca | 07-05-2026 13:30 | 19 | 62,7 | 0 | 1,5 | 233 | 656,9 | 990,2 |
| 54 | Petorca | 07-05-2026 13:15 | 18,4 | 61,7 | 0 | 2 | 220 | 668,1 | 990,3 |
| 53 | Petorca | 07-05-2026 13:00 | 18,2 | 63,4 | 0 | 1,5 | 223 | 674,4 | 990,5 |
| 52 | Petorca | 07-05-2026 12:45 | 18,2 | 62,6 | 0 | 1,5 | 236 | 676,9 | 990,8 |
| 51 | Petorca | 07-05-2026 12:30 | 17,8 | 67,1 | 0 | 1,5 | 219 | 673,1 | 991,1 |
| 50 | Petorca | 07-05-2026 12:15 | 17,3 | 66,4 | 0 | 1 | 213 | 668,1 | 991,2 |
| 49 | Petorca | 07-05-2026 12:00 | 17,5 | 67,1 | 0 | 0,5 | 248 | 659,4 | 991,4 |
| 48 | Petorca | 07-05-2026 11:45 | 16,9 | 68,1 | 0 | 0 | 197 | 646,9 | 991,5 |
| 47 | Petorca | 07-05-2026 11:30 | 16,8 | 71,2 | 0 | 0 | 223 | 629,4 | 991,7 |
| 46 | Petorca | 07-05-2026 11:15 | 16,7 | 70,7 | 0 | 0 | 227 | 609,4 | 991,9 |
| 45 | Petorca | 07-05-2026 11:00 | 15,5 | 74,8 | 0 | 0,5 | 208 | 586,9 | 992,1 |
| 44 | Petorca | 07-05-2026 10:45 | 15,7 | 74,7 | 0 | 0 | 86 | 584,4 | 992 |
| 43 | Petorca | 07-05-2026 10:30 | 14,8 | 79,5 | 0 | 0 | 212 | 543,1 | 992,2 |
| 42 | Petorca | 07-05-2026 10:15 | 14,7 | 79,6 | 0 | 0 | 190 | 568,1 | 992,2 |
| 41 | Petorca | 07-05-2026 10:00 | 13,6 | 83,7 | 0 | 0 | 219 | 511,9 | 992,2 |
| 40 | Petorca | 07-05-2026 09:45 | 13,2 | 84,4 | 0 | 0 | 145 | 224,4 | 992,2 |
| 39 | Petorca | 07-05-2026 09:30 | 12,8 | 85,8 | 0 | 0 | 74 | 161,9 | 992,3 |
| 38 | Petorca | 07-05-2026 09:15 | 12,5 | 86 | 0 | 0 | 79 | 173,1 | 992,3 |
| 37 | Petorca | 07-05-2026 09:00 | 12,1 | 89,5 | 0 | 0 | 102 | 135,6 | 991,9 |
| 36 | Petorca | 07-05-2026 08:45 | 11,6 | 90,7 | 0 | 0 | 102 | 85,6 | 992,1 |
| 35 | Petorca | 07-05-2026 08:30 | 11,2 | 92,7 | 0 | 0 | 102 | 46,9 | 991,9 |
| 34 | Petorca | 07-05-2026 08:15 | 11,2 | 93,2 | 0 | 0 | 102 | 36,9 | 991,9 |
| 33 | Petorca | 07-05-2026 08:00 | 10,9 | 93,2 | 0 | 0 | 105 | 13,1 | 991,8 |
| 32 | Petorca | 07-05-2026 07:45 | 10,7 | 93,2 | 0 | 0 | 128 | 8,1 | 991,6 |
| 31 | Petorca | 07-05-2026 07:30 | 10,8 | 92,6 | 0 | 0 | 216 | 3,1 | 991,8 |
| 30 | Petorca | 07-05-2026 07:15 | 10,9 | 93,2 | 0 | 0 | 205 | 0,6 | 991,7 |
| 29 | Petorca | 07-05-2026 07:00 | 11 | 93,6 | 0 | 0 | 177 | 0,6 | 991,6 |
| 28 | Petorca | 07-05-2026 06:45 | 11 | 93,5 | 0 | 0 | 174 | 0,6 | 991,3 |
| 27 | Petorca | 07-05-2026 06:30 | 11 | 93,1 | 0 | 0 | 122 | 0,6 | 991,3 |
| 26 | Petorca | 07-05-2026 06:15 | 11,1 | 93 | 0 | 0 | 60 | 0,6 | 991,1 |
| 25 | Petorca | 07-05-2026 06:00 | 11,1 | 93,4 | 0 | 0 | 77 | 0,6 | 990,9 |
| 24 | Petorca | 07-05-2026 05:45 | 11,1 | 93,3 | 0 | 0 | 94 | 0,6 | 991,4 |
| 23 | Petorca | 07-05-2026 05:30 | 11 | 93,3 | 0 | 0 | 194 | 0,6 | 990,9 |
| 22 | Petorca | 07-05-2026 05:15 | 10,9 | 93,8 | 0 | 0 | 220 | 0,6 | 990,6 |
| 21 | Petorca | 07-05-2026 05:00 | 10,9 | 94,4 | 0 | 0 | 195 | 0,6 | 990,7 |
| 20 | Petorca | 07-05-2026 04:45 | 11 | 93,9 | 0 | 0 | 184 | 0,6 | 990,4 |
| 19 | Petorca | 07-05-2026 04:30 | 11,1 | 93,3 | 0 | 0 | 181 | 0,6 | 990,4 |
| 18 | Petorca | 07-05-2026 04:15 | 11,4 | 93 | 0 | 0 | 118 | 0,6 | 990,4 |
| 17 | Petorca | 07-05-2026 04:00 | 11,4 | 92,6 | 0 | 0 | 194 | 0,6 | 990,4 |
| 16 | Petorca | 07-05-2026 03:45 | 11,5 | 92,4 | 0 | 0 | 239 | 0,6 | 990,6 |
| 15 | Petorca | 07-05-2026 03:30 | 11,5 | 92 | 0 | 0,5 | 229 | 0,6 | 990,4 |
| 14 | Petorca | 07-05-2026 03:15 | 11,6 | 91,5 | 0 | 0,5 | 222 | 0,6 | 990,3 |
| 13 | Petorca | 07-05-2026 03:00 | 11,6 | 91,6 | 0 | 0,5 | 136 | 0,6 | 990,3 |
| 12 | Petorca | 07-05-2026 02:45 | 11,4 | 92,6 | 0 | 0 | 142 | 0,6 | 989,9 |
| 11 | Petorca | 07-05-2026 02:30 | 11,7 | 92,1 | 0 | 0 | 248 | 0,6 | 990,1 |
| 10 | Petorca | 07-05-2026 02:15 | 11,8 | 91,8 | 0 | 1,5 | 229 | 0,6 | 990,2 |
| 9 | Petorca | 07-05-2026 02:00 | 11,9 | 92,3 | 0,2 | 1,5 | 233 | 0,6 | 989,9 |
| 8 | Petorca | 07-05-2026 01:45 | 12 | 92,3 | 0 | 1,5 | 227 | 0,6 | 989,7 |
| 7 | Petorca | 07-05-2026 01:30 | 12,1 | 92,6 | 0 | 2 | 229 | 0,6 | 989,6 |
| 6 | Petorca | 07-05-2026 01:15 | 12,2 | 93,2 | 0 | 2 | 212 | 0,6 | 989,4 |
| 5 | Petorca | 07-05-2026 01:00 | 12,6 | 93,6 | 0 | 0 | 253 | 0,6 | 989,6 |
| 4 | Petorca | 07-05-2026 00:45 | 12,8 | 95 | 0 | 0,5 | 230 | 0,6 | 989,7 |
| 3 | Petorca | 07-05-2026 00:30 | 12,4 | 96,3 | 0 | 0 | 198 | 0,6 | 989,5 |
| 2 | Petorca | 07-05-2026 00:15 | 12,9 | 97,3 | 0 | 0 | 159 | 0,6 | 989,8 |
| 1 | Petorca | 07-05-2026 00:00 | 12,7 | 97,3 | 0 | 0 | 281 | 0,6 | 989,6 |